Weather in Yarmolintsy

Ukraine / Khmelnitsky District     49°11′33″N   26°50′25″E
temp.,
°C
wind,
m/s
gust,
m/s
humid.,
%
clouds,
%
prec.,
mm/h
press.,
hPa
HPBL,
m
16 april, fri
fri1600:00+2wnw5895100 0.0 1016466
03:00+2w5996100 0.0 1015490
06:00+2w4996100 0.0 1014511
09:00+2w51195100 0.1 1014534
12:00+3w71083100 0.1 1014776
15:00+3w71193100 0.2 1015751
18:00+3w61296100 0.2 1016700
21:00+2wnw71393100 0.2 1017760
17 april, sat
sat1700:00+2wnw51087100 0.1 1017831
03:00+2w51196100 0.3 1018477
06:00+2w4998100 0.8 1018445
09:00+2w4799100 0.9 1019351
12:00+3w3799100 0.1 1020381
15:00+4nw359499 0.1 1021382
18:00+5nw238597 0.0 1020500
21:00+4nnw238793 0.0 1021193
18 april, sun
sun1800:00+4nnw228897 0.0 102092
03:00+3n11948 0.0 102020
06:00+2nw239625 0.0 101977
09:00+4nw338757 0.0 1019318
12:00+10wnw346212 0.0 1018768
15:00+13nw325099 0.0 10171492
18:00+13nne2247100 0.0 10161535
21:00+7ne4788100 0.1 1017277
19 april, mon
mon1900:00+6ene3692100 0.0 1017223
03:00+6ene2387100 0.0 1017143
06:00+6ene2487100 0.0 1016134
09:00+7ene4574100 0.0 1016378
12:00+10e3458100 0.0 10141068
15:00+12e344698 0.1 10121788
18:00+12ene445092 0.1 10101489
21:00+8ne5975100 0.1 1011321
20 april, tue
tue2000:00+6nne3982100 0.0 1009222
03:00+4n388824 0.0 1008183
06:00+3nnw5109655 0.0 1007294
09:00+6nnw7118090 0.0 1006733
12:00+10nw81058100 0.1 10041678
15:00+9nw7116264 0.2 10051550
18:00+10wnw812585 0.1 10051590
21:00+7w512755 0.1 1007490